N5VKM Weather Reports


Display with metric or nautical units.
time (UTC)temp
F
wind
direction
speed
MPH
gust
MPH
rain 1hr
in
rain 24hr
in
rain mn
in
humidity
%
barometer
mb
20260504181036 78 334 0.0 0.0 0.00 0.00 0.00 53 1010.8
20260504180542 78 336 0.0 0.0 0.00 0.00 0.00 52 1010.8
20260504180042 77 335 0.0 0.0 0.00 0.00 0.00 53 1010.9
20260504175531 77 333 0.0 0.0 0.00 0.00 0.00 53 1010.9
20260504175038 77 333 0.0 0.0 0.00 0.00 0.00 53 1010.9
20260504174546 77 335 0.0 0.0 0.00 0.00 0.00 52 1011.1
20260504174035 77 335 0.0 0.0 0.00 0.00 0.00 52 1011.2
20260504173541 77 335 0.0 0.0 0.00 0.00 0.00 52 1011.2
20260504173031 77 335 0.0 0.0 0.00 0.00 0.00 52 1011.4
20260504172542 76 333 0.0 0.0 0.00 0.00 0.00 53 1011.5
20260504172032 76 334 0.0 0.0 0.00 0.00 0.00 52 1011.5
20260504171541 76 333 0.0 0.0 0.00 0.00 0.00 54 1011.5
20260504171030 76 333 0.0 0.0 0.00 0.00 0.00 52 1011.8
20260504170601 76 334 0.0 0.0 0.00 0.00 0.00 51 1011.9
20260504151042 71 335 0.0 0.0 0.00 0.00 0.00 60 1012.9
20260504150534 71 335 0.0 0.0 0.00 0.00 0.00 60 1013.0
20260504141029 68 335 0.0 0.0 0.00 0.00 0.00 67 1013.1
20260504140601 68 336 0.0 0.0 0.00 0.00 0.00 68 1013.1
20260504130547 65 336 0.0 0.0 0.00 0.00 0.00 70 1013.2
20260504110528 61 336 0.0 0.0 0.00 0.00 0.00 76 1012.9
20260504100542 62 336 0.0 0.0 0.00 0.00 0.00 71 1013.1
20260504081536 65 335 0.0 0.0 0.00 0.00 0.00 62 1013.8
20260504081045 65 336 0.0 0.0 0.00 0.00 0.00 62 1013.8
20260504080558 65 336 0.0 0.0 0.00 0.00 0.00 63 1013.8
20260504050558 67 336 0.0 0.0 0.00 0.00 0.00 57 1015.6
20260504045536 67 336 0.0 0.0 0.00 0.00 0.00 57 1015.7
20260504045047 67 336 0.0 0.0 0.00 0.00 0.00 57 1015.8
20260504044538 67 336 0.0 0.0 0.00 0.00 0.00 57 1015.8
20260504044029 67 336 0.0 0.0 0.00 0.00 0.00 56 1015.8
20260504043542 67 336 0.0 0.0 0.00 0.00 0.00 56 1015.8
20260504043035 67 335 0.0 0.0 0.00 0.00 0.00 56 1015.8
20260504042548 67 336 0.0 0.0 0.00 0.00 0.00 56 1015.8
20260504042035 67 336 0.0 0.0 0.00 0.00 0.00 56 1015.9
20260504041531 67 336 0.0 0.0 0.00 0.00 0.00 56 1015.9
20260504041041 67 336 0.0 0.0 0.00 0.00 0.00 56 1015.9
20260504040539 67 336 0.0 0.0 0.00 0.00 0.00 56 1015.9
20260504040045 68 336 0.0 0.0 0.00 0.00 0.00 55 1015.9
20260504035556 68 336 0.0 0.0 0.00 0.00 0.00 55 1015.9
20260504035046 68 336 0.0 0.0 0.00 0.00 0.00 55 1016.0
20260504034544 68 336 0.0 0.0 0.00 0.00 0.00 55 1015.9
20260504034032 68 335 0.0 0.0 0.00 0.00 0.00 54 1016.0
20260504033546 68 336 0.0 0.0 0.00 0.00 0.00 54 1015.9
20260504033044 69 335 0.0 0.0 0.00 0.00 0.00 54 1015.9
20260504032531 69 335 0.0 0.0 0.00 0.00 0.00 53 1015.8
20260504032040 69 336 0.0 0.0 0.00 0.00 0.00 53 1015.8
20260504031528 69 336 0.0 0.0 0.00 0.00 0.00 52 1015.8
20260504031040 69 336 0.0 0.0 0.00 0.00 0.00 52 1015.8
20260504030532 70 335 0.0 0.0 0.00 0.00 0.00 51 1015.8
20260504030045 70 336 0.0 0.0 0.00 0.00 0.00 51 1015.7
20260504025532 70 335 0.0 0.0 0.00 0.00 0.00 51 1015.6
20260504025044 70 334 0.0 0.0 0.00 0.00 0.00 50 1015.6
20260504024530 70 336 0.0 0.0 0.00 0.00 0.00 50 1015.7
20260504024042 71 334 0.0 0.0 0.00 0.00 0.00 50 1015.6
20260504023529 71 334 0.0 0.0 0.00 0.00 0.00 49 1015.6
20260504023047 71 334 0.0 0.0 0.00 0.00 0.00 49 1015.6
20260504022540 71 335 0.0 0.0 0.00 0.00 0.00 49 1015.6
20260504022049 71 334 0.0 0.0 0.00 0.00 0.00 48 1015.6
20260504021537 71 335 0.0 0.0 0.00 0.00 0.00 48 1015.5
20260504021028 71 336 0.0 0.0 0.00 0.00 0.00 48 1015.4
20260504020546 72 335 0.0 0.0 0.00 0.00 0.00 48 1015.4
20260504020033 72 335 0.0 0.0 0.00 0.00 0.00 47 1015.5
20260504015527 72 334 0.0 0.0 0.00 0.00 0.00 47 1015.5
20260504015101 72 335 0.0 0.0 0.00 0.00 0.00 47 1015.5
20260504014528 73 335 0.0 0.0 0.00 0.00 0.00 46 1015.4
20260504014104 73 334 0.0 0.0 0.00 0.00 0.00 46 1015.4
20260504013534 73 334 0.0 0.0 0.00 0.00 0.00 45 1015.4
20260504013042 74 336 0.0 0.0 0.00 0.00 0.00 45 1015.3
20260504012550 74 335 0.0 0.0 0.00 0.00 0.00 44 1015.3
20260504012040 74 334 0.0 0.0 0.00 0.00 0.00 44 1015.2
20260504011533 75 335 0.0 0.0 0.00 0.00 0.00 43 1015.2
20260504011042 75 334 0.0 0.0 0.00 0.00 0.00 42 1015.2
20260504010549 75 334 0.0 0.0 0.00 0.00 0.00 41 1015.1
20260504010057 76 334 0.0 0.0 0.00 0.00 0.00 39 1015.1
20260504005530 76 336 0.0 0.0 0.00 0.00 0.00 38 1015.1
20260504005037 77 336 0.0 0.0 0.00 0.00 0.00 37 1015.1
20260504004547 77 336 0.0 0.0 0.00 0.00 0.00 37 1015.1
20260504004038 77 335 0.0 0.0 0.00 0.00 0.00 36 1015.2
20260504003528 77 336 0.0 0.0 0.00 0.00 0.00 36 1015.1
20260504003104 78 336 0.0 0.0 0.00 0.00 0.00 36 1015.2
20260504002538 78 333 0.0 0.0 0.00 0.00 0.00 36 1015.1
20260504002047 78 336 0.0 0.0 0.00 0.00 0.00 35 1015.2
20260504001537 78 336 0.0 0.0 0.00 0.00 0.00 35 1015.1
20260504001045 78 336 0.0 0.0 0.00 0.00 0.00 35 1015.2
20260504000534 79 336 0.0 0.0 0.00 0.00 0.00 35 1015.2
20260504000044 79 336 0.0 0.0 0.00 0.00 0.00 35 1015.2
20260503235534 79 336 0.0 0.0 0.00 0.00 0.00 34 1015.2
20260503235106 79 335 0.0 0.0 0.00 0.00 0.00 34 1015.2
20260503234536 80 336 0.0 0.0 0.00 0.00 0.00 34 1015.3
20260503234050 80 335 0.0 0.0 0.00 0.00 0.00 35 1015.4
20260503233538 80 334 0.0 0.0 0.00 0.00 0.00 34 1015.3
20260503233028 80 336 0.0 0.0 0.00 0.00 0.00 35 1015.4
20260503232539 80 335 0.0 0.0 0.00 0.00 0.00 35 1015.5
20260503232029 80 334 0.0 0.0 0.00 0.00 0.00 34 1015.5
20260503231541 80 334 0.0 0.0 0.00 0.00 0.00 33 1015.5
20260503231034 80 336 0.0 0.0 0.00 0.00 0.00 35 1015.5
20260503230547 81 334 0.0 0.0 0.00 0.00 0.00 34 1015.5
20260503230059 81 336 0.0 0.0 0.00 0.00 0.00 34 1015.5
20260503225545 81 333 0.0 0.0 0.00 0.00 0.00 33 1015.5
20260503225052 81 333 0.0 0.0 0.00 0.00 0.00 34 1015.6
20260503224545 81 335 0.0 0.0 0.00 0.00 0.00 35 1015.6
20260503224035 82 335 0.0 0.0 0.00 0.00 0.00 35 1015.7
20260503223544 82 334 0.0 0.0 0.00 0.00 0.00 35 1015.7
20260503223037 81 335 0.0 0.0 0.00 0.00 0.00 34 1015.8
20260503222530 82 333 0.0 0.0 0.00 0.00 0.00 34 1015.8
20260503222048 82 335 0.0 0.0 0.00 0.00 0.00 35 1015.9
20260503221536 82 334 0.0 0.0 0.00 0.00 0.00 35 1015.9
20260503221042 83 335 0.0 0.0 0.00 0.00 0.00 34 1015.9
20260503220532 83 335 0.0 0.0 0.00 0.00 0.00 34 1016.0
20260503220043 83 333 0.0 0.0 0.00 0.00 0.00 34 1015.9
20260503215529 82 335 0.0 0.0 0.00 0.00 0.00 33 1016.0
20260503215027 82 334 0.0 0.0 0.00 0.00 0.00 34 1016.1
20260503214538 83 334 0.0 0.0 0.00 0.00 0.00 34 1016.1
20260503214049 83 334 0.0 0.0 0.00 0.00 0.00 36 1016.1
20260503213541 82 333 0.0 0.0 0.00 0.00 0.00 35 1016.2
20260503213050 82 334 0.0 0.0 0.00 0.00 0.00 33 1016.3
20260503212538 82 334 0.0 0.0 0.00 0.00 0.00 33 1016.4
20260503212044 82 333 0.0 0.0 0.00 0.00 0.00 33 1016.6
20260503211559 83 334 0.0 0.0 0.00 0.00 0.00 33 1016.7
20260503211048 83 334 0.0 0.0 0.00 0.00 0.00 34 1016.7
20260503210536 83 336 0.0 0.0 0.00 0.00 0.00 34 1016.7
20260503210044 83 333 0.0 0.0 0.00 0.00 0.00 35 1016.9
20260503205532 83 333 0.0 0.0 0.00 0.00 0.00 36 1017.0
20260503205046 83 334 0.0 0.0 0.00 0.00 0.00 36 1017.0
20260503204534 83 334 0.0 0.0 0.00 0.00 0.00 35 1017.1
20260503204041 83 334 0.0 0.0 0.00 0.00 0.00 36 1017.2
20260503203532 83 334 0.0 0.0 0.00 0.00 0.00 35 1017.3
20260503203049 83 336 0.0 0.0 0.00 0.00 0.00 34 1017.4
20260503202539 83 332 0.0 0.0 0.00 0.00 0.00 35 1017.5
20260503202027 83 334 0.0 0.0 0.00 0.00 0.00 35 1017.6
20260503201541 83 335 0.0 0.0 0.00 0.00 0.00 35 1017.7
20260503201052 83 333 0.0 0.0 0.00 0.00 0.00 34 1017.7
20260503200540 83 336 0.0 0.0 0.00 0.00 0.00 33 1017.8
20260503200048 83 336 0.0 0.0 0.00 0.00 0.00 34 1017.9
20260503195555 83 336 0.0 0.0 0.00 0.00 0.00 35 1018.0
20260503195027 82 333 0.0 0.0 0.00 0.00 0.00 36 1018.1
20260503194601 82 336 0.0 0.0 0.00 0.00 0.00 35 1018.1
20260503194031 82 333 0.0 0.0 0.00 0.00 0.00 37 1018.3
20260503193605 82 335 0.0 0.0 0.00 0.00 0.00 36 1018.4
20260503193032 82 335 0.0 0.0 0.00 0.00 0.00 36 1018.4
20260503192530 82 335 0.0 0.0 0.00 0.00 0.00 36 1018.6
20260503192038 82 336 0.0 0.0 0.00 0.00 0.00 38 1018.6
20260503191532 81 336 0.0 0.0 0.00 0.00 0.00 37 1018.6
20260503191046 81 335 0.0 0.0 0.00 0.00 0.00 37 1018.6
20260503190539 82 333 0.0 0.0 0.00 0.00 0.00 36 1018.7
20260503190029 81 334 0.0 0.0 0.00 0.00 0.00 37 1018.7
20260503185540 81 335 0.0 0.0 0.00 0.00 0.00 38 1018.8
20260503185030 81 334 0.0 0.0 0.00 0.00 0.00 38 1018.9
20260503184539 81 335 0.0 0.0 0.00 0.00 0.00 42 1018.9
20260503184029 81 335 0.0 0.0 0.00 0.00 0.00 39 1018.9
20260503183546 81 335 0.0 0.0 0.00 0.00 0.00 40 1019.0
20260503183039 81 335 0.0 0.0 0.00 0.00 0.00 41 1019.1
20260503182533 81 333 0.0 0.0 0.00 0.00 0.00 40 1019.2
20260503182041 81 334 0.0 0.0 0.00 0.00 0.00 41 1019.3
20260503181528 81 334 0.0 0.0 0.00 0.00 0.00 42 1019.5